[[{"header":{"parameterUnit":"m.s-1","parameterCategory":1,"la1":30.2992,"la2":30.254,"lo1":-89.0895,"lo2":-89.0443,"dy":0.0025,"dx":0.0025,"nx":19,"ny":19,"refTime":"2026-04-25T21:00:00:Z","depth":0,"parameterNumber":2,"parameterNumberName":"U-component_of_WINDS"},"data":[0,0,0,0.3474,0.3476,0.3554,0.3554,0.3652,0.3653,0,0,0,0,0,0,0,0,0,0,0,0.3451,0.3451,0.3474,0.3476,0.3553,0.3554,0.3652,0.3653,0,0,0,0,0,0,0,0,0,0,0,0.345,0.3451,0.3452,0.3477,0.3553,0.3554,0.3652,0.3594,0,0,0,0,0,0,0,0,0,0,0.3519,0.3496,0.3451,0.3452,0.3477,0.3553,0.3554,0.3591,0.3597,0.3617,0,0.3633,0,0.3644,0.3659,0.366,0,0,0,0.3477,0.3491,0.3512,0.3452,0.3478,0.3553,0.3519,0.3594,0.3602,0.3625,0.3634,0.3638,0.3646,0.366,0.366,0.3766,0.3767,0,0,0.3473,0.3464,0.3507,0.3517,0.3504,0.3516,0.3521,0.3599,0.3609,0.3635,0.364,0.3648,0.3661,0.3661,0.3766,0.3767,0,0,0,0.346,0.3461,0.3481,0.3513,0.3527,0.3519,0.3524,0.3605,0.3612,0.3641,0.3649,0.3661,0.3662,0.3766,0.3766,0.378,0,0,0,0.3457,0.3454,0.3479,0.3475,0.3525,0.3567,0.3529,0.3607,0.3616,0.3648,0.3661,0.3663,0.3765,0.3766,0.3778,0.3788,0,0,0,0.3446,0.3453,0.3463,0.3474,0.3507,0.3566,0.3577,0.3609,0.3621,0.366,0.3664,0.3765,0.3766,0.3777,0.3786,0.3813,0,0,0,0.3432,0.3475,0.3463,0.3515,0.3506,0.3573,0.3577,0.3628,0.3663,0.3662,0.3765,0.3766,0.3777,0.3785,0.3811,0.3834,0.3842,0,0,0.3482,0.3481,0.3512,0.3504,0.3571,0.3562,0.3632,0.3673,0.3685,0.3738,0.3741,0.3779,0.3786,0.3812,0.3893,0.39,0,0,0,0.3526,0.3548,0.3567,0.36,0.3631,0.3659,0.369,0.3705,0.3751,0.371,0.3796,0.3801,0.3817,0.3828,0.3834,0.3848,0.3771,0.3771,0.3771,0.3586,0.3597,0.3649,0.367,0.3702,0.3732,0.3759,0.3784,0.3788,0.3808,0.3824,0.3872,0.3885,0.3889,0.3903,0.3837,0.3837,0.3837,0.3837,0.3661,0.3694,0.3696,0.3747,0.3759,0.3803,0.3834,0.3834,0.3877,0.3861,0.3876,0.3857,0.3896,0.3909,0.3839,0.3838,0.3838,0.3838,0.3838,0.3701,0.3719,0.3736,0.3783,0.3818,0.3838,0.3878,0.3888,0.3898,0.3912,0.393,0.393,0.3931,0.392,0.392,0.392,0.3921,0.3921,0.3921,0.3736,0.3755,0.3787,0.3823,0.3844,0.3874,0.3905,0.3926,0.3953,0.3957,0.3958,0.3959,0.3897,0.3882,0.3923,0.3923,0.3923,0.3922,0.3922,0.3808,0.3793,0.3843,0.3864,0.3907,0.3941,0.3952,0.3996,0.4015,0.4034,0.4032,0.3985,0.3985,0.3981,0.3968,0.403,0.403,0.403,0.403,0.3842,0.3842,0.3895,0.3928,0.3962,0.3978,0.4033,0.4057,0.4079,0.4092,0.4084,0.4068,0.4063,0.4066,0.406,0.4048,0.4128,0.4128,0.4129,0.3886,0.389,0.3935,0.3956,0.399,0.4019,0.4071,0.4109,0.4132,0.4133,0.4102,0.4098,0.4071,0.4062,0.4063,0.4053,0.4031,0,0]},{"header":{"parameterUnit":"m.s-1","parameterCategory":1,"la1":30.2992,"la2":30.254,"lo1":-89.0895,"lo2":-89.0443,"dy":0.0025,"dx":0.0025,"nx":19,"ny":19,"refTime":"2026-04-25T21:00:00:Z","depth":0,"parameterNumber":3,"parameterNumberName":"V-component_of_WINDS"},"data":[0,0,0,2.7786,2.7787,2.7842,2.7842,2.7917,2.7918,0,0,0,0,0,0,0,0,0,0,0,2.7774,2.7775,2.7785,2.7787,2.7842,2.7842,2.7917,2.7918,0,0,0,0,0,0,0,0,0,0,0,2.7774,2.7774,2.7775,2.7787,2.7842,2.7842,2.7917,2.7873,0,0,0,0,0,0,0,0,0,0,2.7819,2.7813,2.7774,2.7775,2.7788,2.7842,2.7842,2.7871,2.7876,2.7895,0,2.7915,0,2.7918,2.7924,2.7924,0,0,0,2.7783,2.7809,2.782,2.7775,2.7788,2.7842,2.7816,2.7874,2.7879,2.7902,2.7916,2.7919,2.7919,2.7924,2.7925,2.8054,2.8055,0,0,2.778,2.7786,2.7816,2.7824,2.7818,2.7814,2.7818,2.7877,2.7892,2.7916,2.792,2.7921,2.7925,2.7925,2.8053,2.8054,0,0,0,2.7774,2.7784,2.7793,2.7821,2.7831,2.7816,2.782,2.789,2.7892,2.7921,2.7921,2.7925,2.7926,2.8052,2.8054,2.81,0,0,0,2.7772,2.778,2.7792,2.7796,2.783,2.7861,2.7831,2.7888,2.7895,2.7921,2.7925,2.7927,2.8051,2.8053,2.8097,2.8121,0,0,0,2.7769,2.778,2.779,2.7796,2.7821,2.786,2.7866,2.7889,2.7895,2.7924,2.7927,2.8051,2.8053,2.8094,2.8116,2.8158,0,0,0,2.7766,2.7829,2.7791,2.786,2.782,2.7889,2.7866,2.7916,2.7946,2.7926,2.8052,2.8053,2.8094,2.8114,2.8155,2.8195,2.8212,0,0,2.7848,2.7839,2.788,2.7847,2.7925,2.788,2.7964,2.7985,2.7981,2.8029,2.8032,2.8098,2.8116,2.8157,2.8304,2.8318,0,0,0,2.7908,2.7937,2.7956,2.7987,2.8006,2.8024,2.8032,2.8039,2.8081,2.8008,2.8124,2.8134,2.8158,2.8177,2.8188,2.8209,2.8062,2.8062,2.8062,2.8032,2.8026,2.8093,2.8093,2.8123,2.8132,2.8155,2.8166,2.8149,2.8177,2.8191,2.8281,2.8303,2.8312,2.8333,2.8211,2.8211,2.8211,2.8212,2.8152,2.8193,2.8171,2.8229,2.8221,2.8268,2.8279,2.8265,2.8308,2.8269,2.829,2.8249,2.8327,2.8345,2.8215,2.8214,2.8214,2.8214,2.8213,2.8233,2.8251,2.8262,2.8307,2.8341,2.8339,2.8382,2.8372,2.8363,2.8384,2.8399,2.8398,2.8396,2.8392,2.8392,2.8392,2.8393,2.8393,2.8393,2.8313,2.8323,2.8361,2.8388,2.8408,2.8431,2.8441,2.8459,2.8477,2.8466,2.8466,2.8447,2.8336,2.8309,2.8398,2.8397,2.8396,2.8396,2.8396,2.8438,2.8409,2.8468,2.8487,2.8519,2.8554,2.8543,2.858,2.8594,2.8615,2.8592,2.8511,2.85,2.8491,2.8468,2.8593,2.8593,2.8593,2.8593,2.8507,2.8501,2.856,2.8592,2.8622,2.8618,2.8685,2.8693,2.8696,2.8704,2.8685,2.8654,2.8645,2.8639,2.8626,2.8605,2.8762,2.8762,2.8762,2.8583,2.858,2.8639,2.8645,2.8669,2.869,2.8752,2.8788,2.8786,2.8769,2.871,2.8703,2.8653,2.8637,2.8618,2.8599,2.856,0,0]}]]